Location: Gunung Kajang
(2.4167°N, 113.7167°E)
Time: 21:59:41
(UTC+00:00)

Envisat - Pass Details

Date: 29 May 2022
Orbit: 764 x 765 km, 98.2° (Epoch: 24 June)

Event Time Altitude Azimuth Distance (km) Brightness Sun altitude
Rises 21:29:31 0° 346° (NNW) 3,212 6.3 -11.4°
Reaches altitude 10° 21:32:21 10° 330° (NNW) 2,289 5.4 -10.7°
Maximum altitude 21:36:01 20° 283° (WNW) 1,684 4.3 -9.9°
Enters shadow 21:39:33 11° 237° (WSW) 2,253 4.8 -9.1°
